Weather History for Worland, WY

Change the Weather History Date:

Wednesday, February 26, 2014

  Actual Average Record
Temperature  
Mean Temperature 2 °F 29 °F  
Max Temperature 20 °F 43 °F 63 °F (1988)
Min Temperature -17 °F 15 °F -17 °F (2014)
Degree Days  
Heating Degree Days 63 36  
Month to date heating degree days 1366 1083  
Since 1 July heating degree days 6275 5931  
Cooling Degree Days 0 0  
Month to date cooling degree days 0 0  
Year to date cooling degree days 0 0  
Moisture  
Dew Point -6 °F    
Average Humidity 74    
Maximum Humidity 91    
Minimum Humidity 56    
Precipitation  
Precipitation T in 0.00 in 0.08 in (1974)
Month to date precipitation 0.13 0.17  
Year to date precipitation 0.38 0.40  
Sea Level Pressure  
Sea Level Pressure 30.36 in    
Wind  
Wind Speed 3 mph (South)    
Max Wind Speed 13 mph    
Max Gust Speed 14 mph    
Visibility 10 miles    
Events      
T = Trace of Precipitation, MM = Missing Value Source: NWS Daily Summary

Daily Weather History Graph

Daily Weather History Graph

Search for Another Location

Airport:

Trip Planner

Search our weather history database for the weather conditions in past years. The results will help you decide how hot, cold, wet, or windy it might be!

Date:

Astronomy

Feb. 26, 2014 Rise Set
Actual Time 6:53 AM MST 5:56 PM MST
Civil Twilight 6:24 AM MST 6:25 PM MST
Nautical Twilight 5:51 AM MST 6:58 PM MST
Astronomical Twilight 5:17 AM MST 7:32 PM MST
Moon 4:46 AM MST (2/26) 3:10 PM MST (2/26)
Length of Visible Light 12h 00m
Length of Day
11h 02m
Waning Crescent, 9% of the Moon is Illuminated
Feb 26
Waning Crescent
Mar 1
New
Mar 8
First Quarter
Mar 16
Full
Mar 23
Last Quarter

Hourly Weather History & Observations

Time (MST) Temp. Windchill Dew Point Humidity Pressure Visibility Wind Dir Wind Speed Gust Speed Precip Events Conditions
12:53 AM -11.9 °F - -16.1 °F 82% 30.45 in 10.0 mi Calm Calm - N/A   Clear
1:53 AM -13.0 °F - -18.0 °F 78% 30.45 in 10.0 mi Calm Calm - N/A   Clear
2:53 AM -13.0 °F -22.7 °F -16.1 °F 86% 30.47 in 10.0 mi NE 3.5 mph - N/A   Clear
3:53 AM -11.0 °F -27.6 °F -15.0 °F 83% 30.47 in 10.0 mi SSW 8.1 mph - N/A   Clear
4:53 AM -11.9 °F -27.3 °F -17.0 °F 78% 30.46 in 10.0 mi SSE 6.9 mph - N/A   Clear
5:53 AM -9.0 °F -28.4 °F -14.1 °F 79% 30.45 in 10.0 mi SE 11.5 mph - N/A   Clear
6:53 AM -13.0 °F -25.1 °F -17.0 °F 82% 30.49 in 10.0 mi West 4.6 mph - N/A   Clear
7:53 AM -9.0 °F -18.2 °F -13.0 °F 83% 30.48 in 10.0 mi West 3.5 mph - N/A   Clear
8:53 AM -5.1 °F - -7.1 °F 91% 30.48 in 10.0 mi Calm Calm - 0.00 in   Clear
9:53 AM -2.0 °F -12.2 °F -6.0 °F 83% 30.47 in 10.0 mi South 4.6 mph - N/A   Clear
10:53 AM 6.1 °F - -2.9 °F 67% 30.46 in 10.0 mi Calm Calm - N/A   Clear
11:53 AM 10.9 °F - -0.0 °F 61% 30.39 in 10.0 mi Calm Calm - N/A   Clear
12:53 PM 15.1 °F 9.4 °F 3.9 °F 61% 30.38 in 10.0 mi NNW 3.5 mph - N/A   Clear
1:53 PM 17.1 °F - 5.0 °F 59% 30.33 in 10.0 mi Calm Calm - N/A   Clear
2:53 PM 19.0 °F - 7.0 °F 59% 30.31 in 10.0 mi Calm Calm - N/A   Clear
3:53 PM 17.1 °F 8.7 °F 7.0 °F 65% 30.29 in 10.0 mi NE 5.8 mph - N/A   Clear
4:53 PM 16.0 °F 10.4 °F 6.1 °F 65% 30.28 in 10.0 mi NNW 3.5 mph - N/A   Clear
5:53 PM 9.0 °F - 1.9 °F 73% 30.28 in 10.0 mi Calm Calm - N/A   Clear
6:53 PM 3.0 °F -6.4 °F -2.0 °F 80% 30.30 in 10.0 mi ESE 4.6 mph - N/A   Clear
7:53 PM 3.0 °F -8.0 °F -0.9 °F 84% 30.26 in 10.0 mi South 5.8 mph - N/A   Clear
8:53 PM 1.0 °F - -2.0 °F 87% 30.23 in 10.0 mi Calm Calm - N/A   Clear
9:53 PM -5.1 °F -17.6 °F -8.0 °F 87% 30.23 in 10.0 mi NNW 5.8 mph - N/A   Clear
10:53 PM -5.1 °F - -9.0 °F 83% 30.19 in 10.0 mi Calm Calm - N/A   Clear
11:53 PM -0.0 °F -9.9 °F -2.9 °F 88% 30.13 in 10.0 mi South 4.6 mph - N/A   Clear